Fort Yukon, AK

6:41 PM AKDT on August 16, 2017 (GMT -0800)
Fort Yukon

Weather History for PFYU - November, 2012

Change the Weather History Date:

Sunday, November 11, 2012

  Actual Average Record
Temperature  
Mean Temperature -19 °F -  
Max Temperature -11 °F 2 °F 32 °F (1997)
Min Temperature -27 °F -6 °F -36 °F (2006)
Degree Days  
Heating Degree Days 84    
Moisture  
Dew Point -25 °F    
Average Humidity 70    
Maximum Humidity 100    
Minimum Humidity 29    
Precipitation  
Precipitation 0.00 in - - ()
Sea Level Pressure  
Sea Level Pressure 30.01 in    
Wind  
Wind Speed 0 mph (North)    
Max Wind Speed 0 mph    
Max Gust Speed -    
Visibility 8 miles    
Events      
Averages and records for this station are not official NWS values.
T = Trace of Precipitation, MM = Missing Value Source: NWS Daily Summary

Daily Weather History Graph

Daily Weather History Graph

Search for Another Location

Airport or City:

Trip Planner

Search our weather history database for the weather conditions in past years. The results will help you decide how hot, cold, wet, or windy it might be!

Date:

Astronomy

Nov. 11, 2012 Rise Set
Actual Time 9:21 AM AKST 3:27 PM AKST
Civil Twilight 8:14 AM AKST 4:34 PM AKST
Nautical Twilight 7:07 AM AKST 5:41 PM AKST
Astronomical Twilight 6:06 AM AKST 6:42 PM AKST
Moon 5:52 AM AKST (11/11) 2:41 PM AKST (11/11)
Length of Visible Light 8h 20m
Length of Day
6h 05m
Waning Crescent, 6% of the Moon is Illuminated
Nov 11
Waning Crescent
Nov 13
New
Nov 20
First Quarter
Nov 28
Full
Dec 6
Last Quarter

Hourly Weather History & Observations

Time (AKST) Temp. Dew Point Humidity Pressure Visibility Wind Dir Wind Speed Gust Speed Precip Events Conditions
12:16 AM -27.4 °F - N/A% 29.92 in 10.0 mi Calm Calm - N/A   Clear
12:36 AM -27.4 °F - N/A% 29.92 in 10.0 mi Calm Calm - N/A   Mostly Cloudy
12:56 AM -27.4 °F -29.2 °F 91% 29.92 in 9.0 mi Calm Calm - N/A   Scattered Clouds
1:16 AM -25.6 °F - N/A% 29.92 in 9.0 mi Calm Calm - N/A   Mostly Cloudy
1:36 AM -23.8 °F -47.2 °F 29% 29.92 in 2.0 mi Calm Calm - N/A   Overcast
1:56 AM -20.2 °F - N/A% 29.93 in 2.5 mi Calm Calm - N/A   Overcast
2:16 AM -20.2 °F - N/A% 29.93 in 3.0 mi Calm Calm - N/A   Overcast
2:36 AM -18.4 °F - N/A% 29.93 in 4.0 mi Calm Calm - N/A   Overcast
2:56 AM -16.6 °F - N/A% 29.93 in 9.0 mi Calm Calm - N/A   Overcast
3:16 AM -16.6 °F - N/A% 29.93 in 10.0 mi Calm Calm - N/A   Overcast
3:36 AM -14.8 °F - N/A% 29.93 in 10.0 mi Calm Calm - N/A   Overcast
3:56 AM -14.8 °F - N/A% 29.92 in 10.0 mi Calm Calm - N/A   Overcast
4:16 AM -14.8 °F -27.4 °F 53% 29.92 in 10.0 mi Calm Calm - N/A   Overcast
4:36 AM -14.8 °F -25.6 °F 58% 29.92 in 10.0 mi Calm Calm - N/A   Overcast
4:56 AM -14.8 °F -23.8 °F 64% 29.92 in 10.0 mi Calm Calm - N/A   Overcast
5:16 AM -14.8 °F -20.2 °F 77% 29.93 in 0.8 mi Calm Calm - N/A   Overcast
5:36 AM -14.8 °F -25.6 °F 58% 29.93 in 0.5 mi Calm Calm - N/A   Overcast
5:56 AM -16.6 °F -20.2 °F 84% 29.94 in 2.0 mi Calm Calm - N/A   Overcast
6:16 AM -16.6 °F - N/A% 29.94 in 10.0 mi Calm Calm - N/A   Overcast
6:36 AM -18.4 °F -18.4 °F 100% 29.94 in 10.0 mi Calm Calm - N/A   Overcast
6:56 AM -18.4 °F - N/A% 29.94 in 10.0 mi Calm Calm - N/A   Overcast
7:16 AM -18.4 °F -18.4 °F 100% 29.95 in 10.0 mi Calm Calm - N/A   Overcast
7:36 AM -18.4 °F - N/A% 29.95 in 10.0 mi Calm Calm - N/A   Overcast
7:56 AM -20.2 °F -25.6 °F 76% 29.95 in 10.0 mi Calm Calm - N/A   Overcast
8:16 AM -20.2 °F - N/A% 29.95 in 10.0 mi Calm Calm - N/A   Overcast
8:36 AM -22.0 °F - N/A% 29.96 in 7.0 mi Calm Calm - N/A   Overcast
8:56 AM -23.8 °F - N/A% 29.97 in 4.0 mi Calm Calm - N/A   Overcast
9:16 AM -23.8 °F - N/A% 29.97 in 10.0 mi Calm Calm - N/A   Clear
9:36 AM -23.8 °F - N/A% 29.98 in 10.0 mi Calm Calm - N/A   Clear
9:56 AM -23.8 °F - N/A% 29.98 in 10.0 mi Calm Calm - N/A   Clear
10:16 AM -23.8 °F -23.8 °F 100% 29.99 in 10.0 mi Calm Calm - N/A   Clear
10:36 AM -22.0 °F - N/A% 29.99 in 10.0 mi Calm Calm - N/A   Clear
10:56 AM -20.2 °F - N/A% 29.99 in 10.0 mi Calm Calm - N/A   Partly Cloudy
11:16 AM -18.4 °F - N/A% 30.00 in 10.0 mi Calm Calm - N/A   Partly Cloudy
11:36 AM -18.4 °F - N/A% 30.00 in 10.0 mi Calm Calm - N/A   Partly Cloudy
11:56 AM -16.6 °F - N/A% 30.01 in 10.0 mi Calm Calm - N/A   Partly Cloudy
12:16 PM -14.8 °F - N/A% 30.01 in 10.0 mi Calm Calm - N/A   Partly Cloudy
12:36 PM -14.8 °F - N/A% 30.01 in 10.0 mi Calm Calm - N/A   Partly Cloudy
12:56 PM -14.8 °F - N/A% 30.02 in 10.0 mi Calm Calm - N/A   Partly Cloudy
1:16 PM -14.8 °F -27.4 °F 53% 30.03 in 10.0 mi Calm Calm - N/A   Partly Cloudy
1:36 PM -13.0 °F -27.4 °F 49% 30.03 in 10.0 mi Calm Calm - N/A   Partly Cloudy
1:56 PM -13.0 °F -23.8 °F 59% 30.03 in 10.0 mi Calm Calm - N/A   Partly Cloudy
2:16 PM -13.0 °F -23.8 °F 59% 30.03 in 10.0 mi Calm Calm - N/A   Partly Cloudy
2:36 PM -13.0 °F -18.4 °F 77% 30.04 in 10.0 mi Calm Calm - N/A   Partly Cloudy
2:56 PM -14.8 °F -25.6 °F 58% 30.04 in 10.0 mi Calm Calm - N/A   Partly Cloudy
3:16 PM -14.8 °F -22.0 °F 70% 30.04 in 10.0 mi Calm Calm - N/A   Partly Cloudy
3:36 PM -16.6 °F -27.4 °F 58% 30.05 in 10.0 mi Calm Calm - N/A   Partly Cloudy
3:56 PM -16.6 °F -29.2 °F 53% 30.05 in 10.0 mi Calm Calm - N/A   Partly Cloudy
4:16 PM -18.4 °F -27.4 °F 63% 30.05 in 10.0 mi Calm Calm - N/A   Partly Cloudy
4:36 PM -20.2 °F - N/A% 30.06 in 10.0 mi Calm Calm - N/A   Partly Cloudy
4:56 PM -20.2 °F - N/A% 30.06 in 10.0 mi Calm Calm - N/A   Partly Cloudy
5:16 PM -20.2 °F -27.4 °F 69% 30.07 in 10.0 mi Calm Calm - N/A   Clear
5:36 PM -20.2 °F - N/A% 30.07 in 10.0 mi Calm Calm - N/A   Clear
5:56 PM -20.2 °F -20.2 °F 100% 30.08 in 10.0 mi Calm Calm - N/A   Clear
6:16 PM -23.8 °F - N/A% 30.08 in 10.0 mi Calm Calm - N/A   Clear
6:36 PM -23.8 °F - N/A% 30.09 in 10.0 mi Calm Calm - N/A   Clear
6:56 PM -23.8 °F - N/A% 30.09 in 10.0 mi Calm Calm - N/A   Clear
7:16 PM -23.8 °F - N/A% 30.10 in 2.5 mi Calm Calm - N/A   Clear
7:36 PM -25.6 °F - N/A% 30.10 in 3.0 mi Calm Calm - N/A   Clear
7:56 PM -25.6 °F - N/A% 30.10 in 3.0 mi Calm Calm - N/A   Scattered Clouds
8:16 PM -25.6 °F - N/A% 30.10 in 1.5 mi Calm Calm - N/A   Overcast
8:36 PM -25.6 °F -27.4 °F 91% 30.11 in 3.0 mi Calm Calm - N/A   Overcast
8:56 PM -25.6 °F - N/A% 30.11 in 2.0 mi Calm Calm - N/A   Overcast
9:16 PM -25.6 °F - N/A% 30.12 in 2.5 mi Calm Calm - N/A   Overcast
9:36 PM -27.4 °F - N/A% 30.13 in 2.5 mi Calm Calm - N/A   Overcast
9:56 PM -27.4 °F - N/A% 30.13 in 3.0 mi Calm Calm - N/A   Mostly Cloudy
10:16 PM -27.4 °F -27.4 °F 100% 30.14 in 9.0 mi Calm Calm - N/A   Scattered Clouds
10:36 PM -27.4 °F - N/A% 30.14 in 7.0 mi Calm Calm - N/A   Clear
10:56 PM -27.4 °F - N/A% 30.15 in 5.0 mi Calm Calm - N/A   Clear
11:16 PM -27.4 °F - N/A% 30.15 in 7.0 mi Calm Calm - N/A   Mostly Cloudy
11:36 PM -27.4 °F - N/A% 30.15 in 3.0 mi Calm Calm - N/A   Overcast
11:56 PM -27.4 °F - N/A% 30.16 in 2.5 mi Calm Calm - N/A   Overcast